Breckenridge, TX

2:41 PM CST on February 20, 2017 (GMT -0600)
Stephens County

Weather History for KBKD - September, 2013

Change the Weather History Date:

Thursday, September 5, 2013

  Actual Average (KMWL) Record (KMWL)
Temperature  
Mean Temperature 85 °F -  
Max Temperature 99 °F 90 °F 104 °F (1998)
Min Temperature 73 °F 67 °F 63 °F (2008)
Cooling Degree Days 20    
Growing Degree Days 35 (Base 50)    
Moisture  
Dew Point 64 °F    
Average Humidity 51    
Maximum Humidity 75    
Minimum Humidity 27    
Precipitation  
Precipitation 0.03 in - - ()
Sea Level Pressure  
Sea Level Pressure 30.07 in    
Wind  
Wind Speed 6 mph (SE)    
Max Wind Speed 17 mph    
Max Gust Speed 28 mph    
Visibility 10 miles    
Events Rain    
Averages and records for this station are not official NWS values.
T = Trace of Precipitation, MM = Missing Value Source: NWS Daily Summary

Daily Weather History Graph

Daily Weather History Graph

Search for Another Location

Airport or City:

Trip Planner

Search our weather history database for the weather conditions in past years. The results will help you decide how hot, cold, wet, or windy it might be!

Date:

Astronomy

Sep. 05, 2013 Rise Set
Actual Time 7:13 AM CDT 7:54 PM CDT
Civil Twilight 6:48 AM CDT 8:19 PM CDT
Nautical Twilight 6:18 AM CDT 8:48 PM CDT
Astronomical Twilight 5:48 AM CDT 9:18 PM CDT
Moon 7:22 AM CDT (9/5) 7:52 PM CDT (9/5)
Length of Visible Light 13h 31m
Length of Day
12h 41m
New Moon, 0% of the Moon is Illuminated
Sep 5
New Moon
Sep 12
First Quarter
Sep 19
Full
Sep 26
Last Quarter
Oct 4
New

Hourly Weather History & Observations

Time (CDT) Temp. Heat Index Dew Point Humidity Pressure Visibility Wind Dir Wind Speed Gust Speed Precip Events Conditions
12:15 AM 87.1 °F 85.7 °F 56.7 °F 35% 30.05 in 10.0 mi ESE 9.2 mph - N/A   Mostly Cloudy
12:35 AM 86.9 °F 86.1 °F 58.5 °F 38% 30.05 in 10.0 mi ESE 10.4 mph - N/A   Scattered Clouds
12:55 AM 86.0 °F 85.4 °F 59.2 °F 40% 30.05 in 10.0 mi ESE 6.9 mph - N/A   Clear
1:15 AM 85.1 °F 85.0 °F 60.3 °F 43% 30.05 in 10.0 mi ESE 8.1 mph - N/A   Clear
1:35 AM 84.4 °F 84.6 °F 61.0 °F 45% 30.05 in 10.0 mi ESE 6.9 mph - N/A   Clear
1:55 AM 83.8 °F 84.3 °F 61.3 °F 47% 30.05 in 10.0 mi ESE 4.6 mph - N/A   Clear
2:15 AM 82.9 °F 83.7 °F 61.7 °F 49% 30.05 in 10.0 mi ESE 6.9 mph - N/A   Clear
2:35 AM 82.6 °F 83.4 °F 62.1 °F 50% 30.05 in 10.0 mi SE 8.1 mph - N/A   Scattered Clouds
2:55 AM 82.4 °F 83.2 °F 62.1 °F 50% 30.05 in 10.0 mi SE 6.9 mph - N/A   Overcast
3:15 AM 81.7 °F 82.7 °F 62.4 °F 52% 30.05 in 10.0 mi SE 6.9 mph - N/A   Scattered Clouds
3:35 AM 81.0 °F 82.2 °F 62.8 °F 54% 30.05 in 10.0 mi SSE 6.9 mph - N/A   Clear
3:55 AM 80.8 °F 82.1 °F 63.1 °F 55% 30.05 in 10.0 mi SSE 5.8 mph - N/A   Clear
4:15 AM 79.7 °F - 63.5 °F 58% 30.05 in 10.0 mi South 3.5 mph - N/A   Clear
4:35 AM 79.5 °F - 63.5 °F 58% 30.05 in 10.0 mi SSE 3.5 mph - N/A   Clear
4:55 AM 79.2 °F - 63.7 °F 59% 30.05 in 10.0 mi Calm Calm - N/A   Clear
5:15 AM 78.8 °F - 64.0 °F 60% 30.05 in 10.0 mi SSE 4.6 mph - N/A   Clear
5:35 AM 77.9 °F - 64.2 °F 63% 30.06 in 10.0 mi Calm Calm - N/A   Clear
5:55 AM 77.5 °F - 63.9 °F 63% 30.07 in 10.0 mi Calm Calm - N/A   Clear
6:15 AM 77.2 °F - 63.7 °F 63% 30.07 in 10.0 mi Calm Calm - N/A   Clear
6:35 AM 76.6 °F - 63.9 °F 65% 30.08 in 10.0 mi Calm Calm - N/A   Clear
6:55 AM 76.5 °F - 63.9 °F 65% 30.08 in 10.0 mi SSE 3.5 mph - N/A   Clear
7:15 AM 75.2 °F - 64.0 °F 68% 30.09 in 10.0 mi SSE 5.8 mph - N/A   Clear
7:35 AM 73.6 °F - 63.5 °F 71% 30.09 in 10.0 mi ESE 4.6 mph - N/A   Clear
7:55 AM 75.0 °F - 64.4 °F 69% 30.09 in 10.0 mi SE 3.5 mph - N/A   Clear
8:15 AM 76.8 °F - 64.6 °F 66% 30.10 in 10.0 mi East 4.6 mph - N/A   Clear
8:35 AM 78.6 °F - 65.3 °F 64% 30.11 in 10.0 mi ESE 4.6 mph - N/A   Clear
8:55 AM 80.8 °F 82.6 °F 65.5 °F 59% 30.11 in 10.0 mi SE 4.6 mph - N/A   Clear
9:15 AM 81.9 °F 83.7 °F 65.5 °F 57% 30.11 in 10.0 mi SSE 5.8 mph - N/A   Clear
9:35 AM 84.0 °F 85.8 °F 65.3 °F 53% 30.11 in 10.0 mi South 4.6 mph - N/A   Clear
9:55 AM 85.8 °F 87.6 °F 65.3 °F 50% 30.11 in 10.0 mi SSE 3.5 mph - N/A   Clear
10:15 AM 87.4 °F 89.5 °F 65.3 °F 48% 30.12 in 10.0 mi Calm Calm - N/A   Clear
10:35 AM 88.9 °F 90.0 °F 63.5 °F 43% 30.12 in 10.0 mi Calm Calm - N/A   Clear
10:55 AM 90.9 °F 92.0 °F 63.3 °F 40% 30.13 in 7.0 mi Calm Calm - N/A   Clear
11:15 AM 91.2 °F 92.2 °F 63.0 °F 39% 30.12 in 10.0 mi Calm Calm - N/A   Clear
11:35 AM 91.9 °F 92.9 °F 62.8 °F 38% 30.12 in 10.0 mi Calm Calm - N/A   Clear
11:55 AM 94.3 °F 95.3 °F 63.0 °F 35% 30.12 in 10.0 mi Calm Calm - N/A   Clear
12:15 PM 94.8 °F 95.3 °F 61.9 °F 33% 30.11 in 10.0 mi Calm Calm - N/A   Clear
12:35 PM 95.7 °F 96.3 °F 61.5 °F 32% 30.11 in 10.0 mi Calm Calm - N/A   Scattered Clouds
12:55 PM 96.8 °F 97.1 °F 61.0 °F 30% 30.10 in 10.0 mi SSE 3.5 mph - N/A   Scattered Clouds
1:15 PM 97.9 °F 97.4 °F 58.8 °F 27% 30.09 in 10.0 mi Calm Calm - N/A   Scattered Clouds
1:35 PM 97.3 °F 97.0 °F 59.2 °F 28% 30.08 in 10.0 mi ENE 4.6 mph - N/A   Scattered Clouds
1:55 PM 96.4 °F 95.7 °F 58.3 °F 28% 30.08 in 10.0 mi Calm Calm - N/A   Scattered Clouds
2:15 PM 96.8 °F 96.2 °F 59.0 °F 28% 30.07 in 10.0 mi Calm Calm - N/A   Overcast
2:35 PM 97.2 °F 96.8 °F 58.8 °F 28% 30.06 in 10.0 mi SSW 4.6 mph - N/A   Overcast
2:55 PM 95.9 °F 95.3 °F 58.6 °F 29% 30.05 in 10.0 mi Calm Calm - N/A   Overcast
3:15 PM 95.2 °F 94.7 °F 59.0 °F 30% 30.05 in 10.0 mi North 5.8 mph - N/A   Overcast
3:35 PM 91.0 °F 93.0 °F 65.1 °F 42% 30.05 in 7.0 mi WNW 9.2 mph - N/A Rain Light Rain
3:55 PM 88.2 °F 91.3 °F 67.1 °F 50% 30.04 in 10.0 mi NW 6.9 mph - N/A   Scattered Clouds
4:15 PM 89.6 °F 91.1 °F 64.6 °F 43% 30.03 in 10.0 mi WNW 6.9 mph - N/A Rain Light Rain
4:35 PM 87.3 °F 88.9 °F 64.8 °F 47% 30.03 in 7.0 mi West 16.1 mph - N/A Rain Light Rain
4:55 PM 86.9 °F 89.6 °F 66.7 °F 51% 30.03 in 10.0 mi SW 11.5 mph 19.6 mph N/A Rain Light Rain
5:15 PM 88.5 °F 91.9 °F 67.8 °F 50% 30.03 in 10.0 mi NNW 4.6 mph 10.4 mph 0.01 in   Mostly Cloudy
5:35 PM 82.2 °F 85.1 °F 68.0 °F 62% 30.04 in 10.0 mi NE 17.3 mph 27.6 mph 0.01 in Rain Rain
5:55 PM 83.1 °F 83.5 °F 61.2 °F 47% 30.05 in 1.2 mi North 10.4 mph 19.6 mph 0.01 in Rain Heavy Rain
6:15 PM 81.5 °F 83.1 °F 64.2 °F 56% 30.04 in 10.0 mi WNW 6.9 mph - N/A Rain Light Rain
6:35 PM 80.2 °F 82.6 °F 66.9 °F 64% 30.03 in 10.0 mi West 4.6 mph - N/A   Mostly Cloudy
6:55 PM 83.1 °F 85.7 °F 66.9 °F 58% 30.02 in 10.0 mi West 5.8 mph - 0.01 in   Mostly Cloudy
7:15 PM 83.7 °F 86.0 °F 66.2 °F 56% 30.03 in 10.0 mi Calm Calm - N/A   Scattered Clouds
7:35 PM 83.8 °F 87.3 °F 68.5 °F 60% 30.03 in 10.0 mi Calm Calm - N/A   Clear
7:55 PM 81.9 °F 84.8 °F 68.2 °F 63% 30.03 in 10.0 mi SSE 11.5 mph - N/A   Clear
8:15 PM 83.3 °F 85.1 °F 65.3 °F 54% 30.04 in 10.0 mi SSE 9.2 mph - N/A   Clear
8:35 PM 82.9 °F 84.8 °F 65.3 °F 55% 30.05 in 10.0 mi SSE 8.1 mph - N/A   Clear
8:55 PM 83.3 °F 85.1 °F 64.9 °F 54% 30.05 in 10.0 mi SSE 8.1 mph - N/A   Clear
9:15 PM 82.4 °F 84.2 °F 65.5 °F 56% 30.06 in 10.0 mi SSE 8.1 mph - N/A   Clear
9:35 PM 82.6 °F 84.5 °F 65.5 °F 56% 30.07 in 10.0 mi SSE 6.9 mph - N/A   Clear
9:55 PM 82.6 °F 84.7 °F 65.8 °F 57% 30.07 in 10.0 mi SSE 5.8 mph - 0.01 in   Clear
10:15 PM 81.0 °F 83.6 °F 67.6 °F 64% 30.08 in 10.0 mi SSE 4.6 mph - N/A   Clear
10:35 PM 80.4 °F 83.1 °F 68.0 °F 66% 30.08 in 10.0 mi SE 4.6 mph - N/A   Clear
10:55 PM 78.6 °F - 70.0 °F 75% 30.08 in 10.0 mi ENE 3.5 mph - N/A   Clear
11:15 PM 79.7 °F - 67.8 °F 67% 30.08 in 10.0 mi East 6.9 mph - N/A   Clear
11:35 PM 78.8 °F - 68.4 °F 70% 30.09 in 10.0 mi Calm Calm - N/A   Clear
11:55 PM 79.0 °F - 66.9 °F 66% 30.08 in 10.0 mi SE 9.2 mph - N/A   Mostly Cloudy